MDT,Max TemperatureF,Mean TemperatureF,Min TemperatureF,Max Dew PointF,MeanDew PointF,Min DewpointF,Max Humidity, Mean Humidity, Min Humidity, Max Sea Level PressureIn, Mean Sea Level PressureIn, Min Sea Level PressureIn, Max VisibilityMiles, Mean VisibilityMiles, Min VisibilityMiles, Max Wind SpeedMPH, Mean Wind SpeedMPH, Max Gust SpeedMPH,PrecipitationIn, CloudCover, Events, WindDirDegrees
2013-7-1,97,76,55,46,40,30,57,34,11,30.04,29.93,29.82,10,10,10,23,7,47,0.00,0,,51
2013-7-2,94,77,60,46,42,37,44,31,18,30.12,29.95,29.78,10,10,8,20,6,25,0.00,1,Thunderstorm,298
2013-7-3,95,75,55,48,40,30,66,39,11,30.01,29.84,29.70,10,10,9,30,7,38,0.00,0,,356
2013-7-4,93,76,58,49,42,37,57,37,16,29.98,29.77,29.69,10,10,9,23,4,36,T,1,Rain-Thunderstorm,39
2013-7-5,94,77,59,51,45,39,60,38,15,29.86,29.75,29.66,10,10,8,22,7,30,0.01,2,Rain,302
2013-7-6,92,74,56,51,45,34,67,41,15,29.89,29.81,29.73,10,10,10,28,7,33,0.00,2,,333
2013-7-7,94,76,58,49,46,38,72,44,16,30.13,29.86,29.76,10,10,10,25,6,43,0.00,0,,127
2013-7-8,96,80,63,50,43,31,56,34,11,29.99,29.93,29.86,10,10,10,20,7,29,0.00,0,,330
2013-7-9,96,79,61,48,42,35,56,34,12,30.05,29.97,29.89,10,10,10,20,5,25,0.00,0,,40
2013-7-10,98,77,55,47,41,28,59,34,9,30.10,29.92,29.81,10,10,10,25,5,36,0.00,0,,187
2013-7-11,94,75,56,52,48,44,62,41,20,29.96,29.88,29.79,10,10,10,21,8,25,0.00,1,,210
2013-7-12,89,74,59,57,52,46,72,49,25,30.18,29.93,29.82,10,10,10,30,6,36,T,4,Rain-Thunderstorm,210
2013-7-13,90,73,55,55,49,39,86,52,17,30.01,29.94,29.87,10,10,10,16,6,21,T,1,,269
2013-7-14,94,80,65,61,51,44,78,49,19,30.13,29.93,29.78,10,9,1,37,6,45,0.15,3,Rain-Thunderstorm,41
2013-7-15,86,73,59,62,57,54,87,64,40,30.14,29.96,29.86,10,10,7,26,7,33,0.10,4,Rain-Thunderstorm,109
2013-7-16,83,71,58,59,54,50,90,64,37,30.20,30.01,29.93,10,10,10,20,3,23,0.00,5,Thunderstorm,96
2013-7-17,85,73,61,59,50,46,73,51,28,30.35,30.08,29.98,10,10,10,25,4,31,T,5,Rain-Thunderstorm,49
2013-7-18,87,74,60,61,53,47,78,52,25,30.24,30.02,29.88,10,9,2,28,5,35,0.30,3,Rain-Thunderstorm,29
2013-7-19,86,72,57,59,54,50,93,62,30,30.26,30.01,29.90,10,10,10,24,6,32,0.01,3,Rain-Thunderstorm,66
2013-7-20,91,74,57,56,52,46,86,55,24,30.05,29.90,29.78,10,10,10,24,4,35,T,1,Rain-Thunderstorm,93
2013-7-21,91,73,55,56,50,41,77,52,26,30.10,29.91,29.81,10,10,10,29,7,41,0.01,1,Rain-Thunderstorm,127
2013-7-22,93,74,54,51,47,39,80,49,17,30.09,29.93,29.81,10,10,10,26,6,37,T,1,Thunderstorm,23
2013-7-23,85,73,60,51,47,41,60,42,23,29.96,29.92,29.88,10,10,10,16,7,23,0.00,0,,29
2013-7-24,93,78,63,51,44,32,63,38,12,29.98,29.90,29.80,10,10,10,40,9,48,0.00,2,,259
2013-7-25,91,74,57,55,49,41,86,53,19,30.02,29.95,29.87,10,10,7,14,5,25,0.02,1,Rain,288
2013-7-26,96,78,59,53,43,21,56,32,7,30.05,29.98,29.87,10,10,10,26,6,32,0.00,1,,227
2013-7-27,88,75,61,51,48,44,60,42,23,30.04,29.94,29.81,10,10,10,22,6,37,0.00,2,,230
2013-7-28,79,69,59,63,55,48,63,53,42,30.15,29.96,29.81,10,9,2,25,7,35,0.33,7,Rain-Thunderstorm,19
2013-7-29,85,71,56,57,51,38,93,57,20,30.07,29.98,29.92,10,10,10,21,5,26,0.01,2,,326
2013-7-30,90,70,50,51,44,34,83,49,14,30.17,30.11,30.06,10,10,10,15,5,21,0.00,0,,359
2013-7-31,93,72,50,46,41,33,74,44,13,30.17,30.07,29.96,10,10,10,16,5,17,0.00,0,,318